• In Switzerland
  • List of Countries
  • For 7 days
  • Water Temperature
  • Satellite Maps
  • Weather Map
  • Weather Widgets
  • user-avatar
    Login

    Hourly Weather Kovalevka

    Today, 23 September, Sunday

    Time Temperature Precipitation Wind Pressure Humidity
    00:00 +20°C° 0 mm 3 mps 754 mmHg 52%
    01:00 +20°C° 0 mm 3 mps 754 mmHg 54%
    02:00 +19°C° 0 mm 3 mps 754 mmHg 56%
    03:00 +19°C° 0 mm 3 mps 754 mmHg 57%
    04:00 +19°C° 0 mm 3 mps 754 mmHg 60%
    05:00 +18°C° 0 mm 3 mps 754 mmHg 63%
    06:00 +18°C° 0 mm 3 mps 754 mmHg 67%
    07:00 +19°C° 0 mm 3 mps 753 mmHg 62%
    08:00 +21°C° 0 mm 3 mps 753 mmHg 57%
    09:00 +24°C° 0 mm 3 mps 753 mmHg 52%
    10:00 +26°C° 0 mm 4 mps 753 mmHg 45%
    11:00 +28°C° 0 mm 4 mps 753 mmHg 38%
    12:00 +29°C° 0 mm 5 mps 752 mmHg 31%
    13:00 +30°C° 0 mm 6 mps 752 mmHg 31%
    14:00 +30°C° 0 mm 6 mps 752 mmHg 31%
    15:00 +30°C° 0 mm 7 mps 752 mmHg 31%
    16:00 +28°C° 0.1 mm 6 mps 752 mmHg 38%
    17:00 +26°C° 0.1 mm 6 mps 752 mmHg 45%
    18:00 +23°C° 0.1 mm 5 mps 752 mmHg 51%
    19:00 +22°C° 0.1 mm 5 mps 753 mmHg 57%
    20:00 +21°C° 0.1 mm 5 mps 753 mmHg 62%
    21:00 +20°C° 0.1 mm 4 mps 754 mmHg 67%
    22:00 +19°C° 0 mm 4 mps 754 mmHg 70%
    23:00 +17°C° 0 mm 5 mps 754 mmHg 73%

    Tomorrow, 24 September, Monday

    Time Temperature Precipitation Wind Pressure Humidity
    00:00 +16°C° 0 mm 5 mps 755 mmHg 75%
    01:00 +15°C° 0 mm 4 mps 755 mmHg 75%
    02:00 +14°C° 0 mm 4 mps 755 mmHg 74%
    03:00 +13°C° 0 mm 3 mps 755 mmHg 74%
    04:00 +13°C° 0 mm 2 mps 756 mmHg 74%
    05:00 +13°C° 0 mm 2 mps 756 mmHg 74%
    06:00 +12°C° 0 mm 2 mps 756 mmHg 75%
    07:00 +14°C° 0 mm 2 mps 756 mmHg 68%
    08:00 +15°C° 0 mm 2 mps 756 mmHg 61%
    09:00 +16°C° 0 mm 1 mps 756 mmHg 54%
    10:00 +18°C° 0 mm 2 mps 756 mmHg 47%
    11:00 +19°C° 0 mm 2 mps 756 mmHg 40%
    12:00 +21°C° 0 mm 2 mps 755 mmHg 32%
    13:00 +22°C° 0 mm 3 mps 754 mmHg 30%
    14:00 +24°C° 0 mm 3 mps 754 mmHg 27%
    15:00 +25°C° 0 mm 4 mps 753 mmHg 24%
    16:00 +24°C° 0 mm 3 mps 752 mmHg 28%
    17:00 +22°C° 0 mm 3 mps 752 mmHg 32%
    18:00 +21°C° 0 mm 2 mps 752 mmHg 36%
    19:00 +21°C° 0 mm 2 mps 751 mmHg 42%
    20:00 +21°C° 0 mm 3 mps 751 mmHg 48%
    21:00 +20°C° 0 mm 3 mps 751 mmHg 53%
    22:00 +20°C° 0 mm 3 mps 750 mmHg 57%
    23:00 +20°C° 0 mm 4 mps 750 mmHg 61%

    Day after tomorrow, 25 September, Tuesday

    Time Temperature Precipitation Wind Pressure Humidity
    00:00 +20°C° 0 mm 4 mps 749 mmHg 65%
    01:00 +20°C° 0 mm 4 mps 749 mmHg 71%
    02:00 +20°C° 0 mm 5 mps 749 mmHg 76%
    03:00 +20°C° 0 mm 5 mps 749 mmHg 82%
    04:00 +19°C° 0.1 mm 5 mps 749 mmHg 81%
    05:00 +19°C° 0.1 mm 6 mps 749 mmHg 81%
    06:00 +17°C° 0.1 mm 6 mps 749 mmHg 80%
    07:00 +16°C° 0.2 mm 6 mps 750 mmHg 78%
    08:00 +15°C° 0.2 mm 6 mps 750 mmHg 75%
    09:00 +14°C° 0.2 mm 5 mps 751 mmHg 72%
    10:00 +14°C° 0.2 mm 5 mps 751 mmHg 68%
    11:00 +15°C° 0.2 mm 5 mps 752 mmHg 64%
    12:00 +15°C° 0.2 mm 5 mps 752 mmHg 60%
    13:00 +16°C° 0 mm 5 mps 752 mmHg 54%
    14:00 +17°C° 0 mm 5 mps 753 mmHg 47%
    15:00 +19°C° 0 mm 5 mps 753 mmHg 41%
    16:00 +17°C° 0 mm 5 mps 753 mmHg 42%
    17:00 +18°C° 0 mm 4 mps 753 mmHg 43%
    18:00 +18°C° 0 mm 4 mps 754 mmHg 43%
    19:00 +17°C° 0 mm 4 mps 754 mmHg 43%
    20:00 +17°C° 0 mm 4 mps 755 mmHg 43%
    21:00 +15°C° 0 mm 4 mps 755 mmHg 42%
    22:00 +15°C° 0 mm 4 mps 755 mmHg 45%
    23:00 +14°C° 0 mm 4 mps 756 mmHg 47%

    26 September, Wednesday

    Time Temperature Precipitation Wind Pressure Humidity
    00:00 +13°C° 0 mm 4 mps 756 mmHg 49%
    01:00 +12°C° 0 mm 4 mps 756 mmHg 54%
    02:00 +11°C° 0 mm 3 mps 757 mmHg 58%
    03:00 +10°C° 0 mm 3 mps 757 mmHg 63%
    04:00 +10°C° 0 mm 3 mps 758 mmHg 65%
    05:00 +9°C° 0 mm 3 mps 758 mmHg 66%
    06:00 +9°C° 0 mm 3 mps 759 mmHg 68%
    07:00 +10°C° 0 mm 3 mps 759 mmHg 62%
    08:00 +11°C° 0 mm 3 mps 760 mmHg 56%
    09:00 +12°C° 0 mm 4 mps 760 mmHg 50%
    10:00 +13°C° 0 mm 4 mps 760 mmHg 46%
    11:00 +14°C° 0 mm 4 mps 761 mmHg 41%
    12:00 +15°C° 0 mm 4 mps 761 mmHg 37%
    13:00 +15°C° 0 mm 4 mps 761 mmHg 35%
    14:00 +15°C° 0 mm 4 mps 761 mmHg 34%
    15:00 +17°C° 0 mm 4 mps 761 mmHg 32%
    16:00 +15°C° 0 mm 4 mps 761 mmHg 34%
    17:00 +14°C° 0 mm 3 mps 761 mmHg 35%
    18:00 +14°C° 0 mm 3 mps 762 mmHg 36%
    19:00 +13°C° 0 mm 3 mps 762 mmHg 38%
    20:00 +12°C° 0 mm 3 mps 763 mmHg 40%
    21:00 +11°C° 0 mm 3 mps 763 mmHg 42%
    22:00 +12°C° 0 mm 2 mps 763 mmHg 44%
    23:00 +10°C° 0 mm 2 mps 763 mmHg 46%

    27 September, Thursday

    Time Temperature Precipitation Wind Pressure Humidity
    00:00 +10°C° 0 mm 2 mps 763 mmHg 48%
    01:00 +9°C° 0 mm 2 mps 763 mmHg 50%
    02:00 +9°C° 0 mm 2 mps 763 mmHg 51%
    03:00 +8°C° 0 mm 2 mps 763 mmHg 53%
    04:00 +8°C° 0 mm 2 mps 763 mmHg 55%
    05:00 +8°C° 0 mm 1 mps 763 mmHg 56%
    06:00 +8°C° 0 mm 1 mps 763 mmHg 58%
    07:00 +10°C° 0 mm 1 mps 763 mmHg 53%
    08:00 +11°C° 0 mm 1 mps 763 mmHg 48%
    09:00 +13°C° 0 mm 1 mps 763 mmHg 43%
    10:00 +14°C° 0 mm 2 mps 763 mmHg 39%
    11:00 +14°C° 0 mm 3 mps 763 mmHg 34%
    12:00 +15°C° 0 mm 4 mps 762 mmHg 30%
    13:00 +17°C° 0 mm 4 mps 762 mmHg 29%
    14:00 +16°C° 0 mm 5 mps 761 mmHg 27%
    15:00 +17°C° 0 mm 5 mps 760 mmHg 26%
    16:00 +16°C° 0 mm 5 mps 760 mmHg 29%
    17:00 +15°C° 0 mm 4 mps 760 mmHg 31%
    18:00 +14°C° 0 mm 4 mps 760 mmHg 34%
    19:00 +13°C° 0 mm 4 mps 760 mmHg 37%
    20:00 +12°C° 0 mm 4 mps 760 mmHg 41%
    21:00 +12°C° 0 mm 4 mps 760 mmHg 44%
    22:00 +11°C° 0 mm 3 mps 759 mmHg 46%
    23:00 +11°C° 0 mm 3 mps 759 mmHg 48%

    28 September, Friday

    Time Temperature Precipitation Wind Pressure Humidity
    00:00 +11°C° 0 mm 3 mps 759 mmHg 50%
    01:00 +11°C° 0 mm 3 mps 758 mmHg 50%
    02:00 +11°C° 0 mm 3 mps 758 mmHg 51%
    03:00 +11°C° 0 mm 3 mps 758 mmHg 51%
    04:00 +10°C° 0 mm 3 mps 758 mmHg 52%
    05:00 +10°C° 0 mm 3 mps 757 mmHg 53%
    06:00 +10°C° 0 mm 3 mps 757 mmHg 53%
    07:00 +12°C° 0 mm 4 mps 757 mmHg 49%
    08:00 +13°C° 0 mm 4 mps 757 mmHg 44%
    09:00 +15°C° 0 mm 4 mps 757 mmHg 40%
    10:00 +17°C° 0 mm 5 mps 757 mmHg 36%
    11:00 +19°C° 0 mm 5 mps 757 mmHg 32%
    12:00 +21°C° 0 mm 5 mps 756 mmHg 29%
    13:00 +21°C° 0 mm 5 mps 756 mmHg 29%
    14:00 +22°C° 0 mm 5 mps 755 mmHg 29%
    15:00 +22°C° 0 mm 5 mps 755 mmHg 28%
    16:00 +21°C° 0 mm 4 mps 755 mmHg 32%
    17:00 +20°C° 0 mm 4 mps 754 mmHg 35%
    18:00 +18°C° 0 mm 3 mps 754 mmHg 38%
    19:00 +17°C° 0 mm 3 mps 754 mmHg 42%
    20:00 +17°C° 0 mm 3 mps 754 mmHg 46%
    21:00 +16°C° 0 mm 3 mps 754 mmHg 51%
    22:00 +14°C° 0 mm 3 mps 754 mmHg 53%
    23:00 +14°C° 0 mm 3 mps 754 mmHg 56%
    Show more